STARLINK-36695, 67702

Orbit data source: Space-Track

STARLINK-36695, 67702 is a payload satellite owned by SpaceX/Seattle (US) in SSO that was launched on Sat, 07 Feb 2026 UTC via an FALCON 9 launch vehicle from the Air Force Western Test Range (AFWTR). Payload-class satellites include a variety of spacecraft equipped with specific instruments for various scientific and technological missions. These include communications satellites like Starlink; space stations such as the ISS; scientific satellites like the Hubble; Earth observation satellites from companies like Planet Labs, Umbra, and HawkEye 360; GPS; miniature CubeSats for education and research; and military/defense satellites.

Loading next visibility...
Identifier
67702, 2026-025K
Orbit
SSO
Country
Flag of USUS
Related business
Manufacturer
SpaceX/Seattle
Mission
Operational Commercial Communications
Bus & Motor
STARLINK V2MO, Unknown motor
Mass
575 kg wet, ~530 kg dry
Launch date (UTC)
2026-02-07 (4 months ago)
Launch vehicle
FALCON 9
Launch site
Air Force Western Test Range (AFWTR)
Object type
Payload
Rocket body
Debris
Shape & HBR
Box + 2 Pan, 17.7 m
Radar Cross Section
36.964 m², Large (>1 m²)

Expand to show TLE details & history
Last TLE update: 13 hours ago

TLE from 13 hours ago
0 STARLINK-36695
1 67702U 26025K   26171.32341801  .00017858  00000-0  55383-3 0  9992
2 67702  97.2845 282.5990 0000235 133.9831 226.1431 15.33464943 21747
Epoch: 2026-06-20T07:45Z
TLE epoch observation values (Epoch: 2026-06-20T07:45:43.316Z)
Latitude
-0.00001°
Longitude
-102.37117°
Altitude
468.707 km
Speed
7.632 km/s
True Right ascension
18h 50m 23s
True Declination
0° 00' 00"
Sunlit
Object was in full shadow at epoch
Visualization orbit readout
Latitude
Unknown
Longitude
Unknown
Altitude
Unknown
Speed
Unknown
Apparent Right ascension
Unknown
Apparent Declination
Unknown
Sunlit
N/A
Visualization observer readout
Local Sidereal Time
07:19:18
Azimuth
Unknown
Elevation
Unknown
Doppler factor
Unknown
Orbital elements
Apogee altitude
462.587 km
Perigee altitude
462.266 km
Semi-major axis
6,840.564 km
Eccentricity
0.00002
Inclination
97.2845°
RAAN
282.599°
Arg. of periapsis
133.9831°
True anomaly
226.14116°
Mean anomaly
226.1431°
Eccentric anomaly
226.14213°
Mean motion
3.83624 °/min
Orbital period
93.84 mins
BSTAR
0.00055383
Loading maneuver chart data...
Computing Atmospheric mass density...
Loading historical data...
Loading historical data...
Loading historical data...
Loading historical data...
Loading historical data...
Loading historical data...
Loading historical data...

Documentation

Showing up to 5 results
|